Location: Hopewell Observatory
(38.8698°N, 77.6988°W)
Time: 09:39:05
(UTC-04:00)

Amateur Radio Satellites - All Passes

Search period start: 23 June 2017 09:09
Search period end: 24 June 2017 09:09
Location: Hopewell Observatory, 38.8698°N, 77.6988°W

Satellite Date Start Highest point End Downlink Frequencies (MHz)
Time Altitude Azimuth
AAUSAT CUBESAT 2 23 Jun 09:16:55 09:21:02 73° 102° (ESE) 09:25:07 437.432
TIGRISAT 23 Jun 09:29:50 09:33:16 21° 67° (ENE) 09:36:46 435.000
CUBEBUG 2 23 Jun 09:48:09 09:52:22 32° 290° (WNW) 09:56:28 437.445
SEEDS 23 Jun 09:53:59 09:56:59 20° 292° (WNW) 09:59:59 437.485
AO-73 23 Jun 09:55:04 09:59:34 87° 283° (WNW) 10:03:55 145.935
YUBILEINY 23 Jun 10:04:25 10:13:18 82° 82° (E) 10:22:06 435.215
UNISAT 6 23 Jun 10:09:52 10:14:21 61° 74° (ENE) 10:18:57 437.425
PRISM 23 Jun 10:10:29 10:14:29 65° 75° (ENE) 10:18:31 437.425
M-CUBED/EXP-1 PRIME 23 Jun 10:10:40 10:13:40 30° 257° (WSW) 10:16:36 437.505
RS-15 23 Jun 10:14:59 10:18:14 11° 267° (W) 10:21:27 29.354- 29.394
HO-68 23 Jun 10:19:37 10:25:03 24° 301° (WNW) 10:30:28 435.675
FO-29 23 Jun 10:24:39 10:30:28 80° 257° (WSW) 10:37:10 435.910
Oscar 11 23 Jun 10:25:44 10:29:54 50° 286° (WNW) 10:34:03 .
ISS 23 Jun 10:28:06 10:31:18 50° 325° (NW) 10:34:31 437.550
UWE-3 23 Jun 10:28:15 10:31:39 21° 293° (WNW) 10:35:01 435.000/436.395/437.385
ZACube-1 23 Jun 10:28:50 10:32:51 33° 289° (WNW) 10:36:47 437.345
Tancredo 1 23 Jun 10:41:45 10:44:08 21° 333° (NNW) 10:46:32 437.200
NANOSAT C BR1 23 Jun 10:59:00 10:59:53 11° 63° (ENE) 11:00:46 145.865
TIGRISAT 23 Jun 11:05:30 11:09:40 36° 263° (W) 11:13:59 435.000
DELFI C3 23 Jun 11:08:11 11:12:03 59° 285° (WNW) 11:15:56 145.870
EO-88 23 Jun 11:12:29 11:16:09 78° 283° (WNW) 11:19:46 145.990 - 145.960
POLYITAN 1 23 Jun 11:31:06 11:34:42 27° 69° (ENE) 11:38:19 437.675
QB50P2 23 Jun 11:41:21 11:45:18 38° 72° (ENE) 11:49:17 145.880/145.840
LO-87 23 Jun 11:44:11 11:47:22 28° 97° (E) 11:50:32 145.935 - 145.965
UNISAT 6 23 Jun 11:49:39 11:51:27 12° 270° (W) 11:53:16 437.425
AIST 2D 23 Jun 11:58:55 12:02:25 58° 260° (W) 12:05:56 435.315
YUBILEINY 23 Jun 12:03:17 12:08:56 19° 281° (WNW) 12:14:35 435.215
EO-79 23 Jun 12:06:31 12:10:43 70° 76° (ENE) 12:14:59 145.935-145.965
ISS 23 Jun 12:06:48 12:08:24 13° 344° (NNW) 12:10:00 437.550
BUGSAT 1 23 Jun 12:10:28 12:13:14 18° 67° (ENE) 12:16:01 437.445
ESTCUBE 1 23 Jun 12:20:11 12:24:29 45° 99° (E) 12:28:46 437.505/2401.250
DUCHIFAT 1 23 Jun 12:23:40 12:27:53 89° 77° (ENE) 12:32:10 145.980
PCSat 23 Jun 12:25:18 12:30:06 33° 109° (ESE) 12:34:56 145.827
NANOSAT C BR1 23 Jun 12:30:47 12:34:59 67° 258° (WSW) 12:39:14 145.865
VELOX 1 23 Jun 12:34:34 12:36:59 14° 92° (E) 12:39:24 145.980
Oscar 19 23 Jun 13:06:59 13:11:30 32° 68° (ENE) 13:16:02 437.125/150
POLYITAN 1 23 Jun 13:06:59 13:10:25 23° 265° (W) 13:13:53 437.675
SPROUT 23 Jun 13:13:47 13:17:55 44° 99° (E) 13:22:01 437.525
LO-87 23 Jun 13:18:13 13:20:33 16° 292° (WNW) 13:22:53 145.935 - 145.965
QB50P2 23 Jun 13:18:31 13:21:13 16° 267° (W) 13:23:56 145.880/145.840
50 SAT 23 Jun 13:26:14 13:28:56 22° 96° (E) 13:31:38 437.505
UKube-1 23 Jun 13:26:23 13:27:13 10° 91° (E) 13:28:04 .
Gurwin Techsat 1B 23 Jun 13:39:39 13:44:34 40° 70° (ENE) 13:49:31 435.225
BUGSAT 1 23 Jun 13:44:31 13:48:17 35° 262° (W) 13:52:08 437.445
Tancredo 1 23 Jun 13:57:11 13:57:29 10° 14° (NNE) 13:57:46 437.200
ESTCUBE 1 23 Jun 13:58:06 14:00:53 17° 295° (WNW) 14:03:41 437.505/2401.250
PCSat 23 Jun 14:08:34 14:13:27 33° 307° (NW) 14:18:21 145.827
VELOX 1 23 Jun 14:09:24 14:13:40 47° 287° (WNW) 14:17:55 145.980
AO-7 23 Jun 14:32:31 14:39:35 32° 59° (ENE) 14:46:41 .
DX 1 23 Jun 14:36:59 14:41:21 74° 285° (WNW) 14:45:42 434.975-435.025
Oscar 19 23 Jun 14:46:20 14:50:46 29° 264° (W) 14:55:13 437.125/150
SPROUT 23 Jun 14:50:51 14:53:26 16° 294° (WNW) 14:56:00 437.525
SO-50 23 Jun 14:52:14 14:56:28 38° 115° (ESE) 15:00:40 436.795
50 SAT 23 Jun 14:59:12 15:01:35 18° 291° (WNW) 15:03:57 437.505
UKube-1 23 Jun 14:59:20 15:03:37 62° 286° (WNW) 15:07:52 .
ITAMSAT 1 23 Jun 15:17:40 15:22:34 44° 70° (ENE) 15:27:29 435.822/435.867
ITUPSAT 1 23 Jun 15:18:24 15:21:40 18° 93° (E) 15:24:53 437.325
Gurwin Techsat 1B 23 Jun 15:20:25 15:24:36 24° 265° (W) 15:28:50 435.225
ISS 23 Jun 15:21:06 15:23:37 20° 25° (NNE) 15:26:08 437.550
MOZHAYETS 4 23 Jun 15:23:33 15:25:30 12° 91° (E) 15:27:27
BEESAT 23 Jun 15:29:34 15:33:27 24° 95° (E) 15:37:18 436.000
Tancredo 1 23 Jun 15:30:56 15:33:47 35° 32° (NNE) 15:36:37 437.200
AO-7 23 Jun 16:23:45 16:31:53 58° 257° (WSW) 16:40:06 .
SO-50 23 Jun 16:33:18 16:37:01 24° 312° (NW) 16:40:43 436.795
JUGNU 23 Jun 16:37:32 16:39:27 11° 182° (S) 16:41:22 437.505
ITUPSAT 1 23 Jun 16:55:07 16:59:40 44° 289° (WNW) 17:04:11 437.325
ISS 23 Jun 16:57:06 17:00:21 61° 222° (SW) 17:03:35 437.550
ITAMSAT 1 23 Jun 16:58:19 17:02:11 21° 266° (W) 17:06:06 435.822/435.867
MOZHAYETS 4 23 Jun 16:58:30 17:03:01 58° 286° (WNW) 17:07:29
Tancredo 1 23 Jun 17:06:55 17:09:13 20° 228° (SW) 17:11:30 437.200
BEESAT 23 Jun 17:06:58 17:11:14 33° 291° (WNW) 17:15:28 436.000
KKS-1 23 Jun 17:13:17 17:16:51 23° 95° (E) 17:20:24 437.445
NUDT-PHONESAT 23 Jun 17:31:47 17:32:19 10° 65° (ENE) 17:32:51 437.300
CUBESAT XI-V 23 Jun 17:32:58 17:37:30 58° 100° (E) 17:42:01 437.345
DOVE 4 23 Jun 17:34:01 17:37:48 36° 71° (ENE) 17:41:41 437.250
XW-2F 23 Jun 17:37:48 17:40:13 16° 68° (ENE) 17:42:38 145.980 - 146.000
XW-2D 23 Jun 17:39:46 17:42:28 19° 69° (ENE) 17:45:10 145.860 - 145.880
CUTE-I 23 Jun 17:44:07 17:48:26 26° 66° (ENE) 17:52:45 437.470
LilacSat-2 23 Jun 17:44:45 17:47:46 22° 70° (ENE) 17:50:47 437.200
XW-2B 23 Jun 17:48:19 17:51:20 22° 70° (ENE) 17:54:22 145.730 - 145.750
STARS 23 Jun 17:49:41 17:53:17 24° 96° (E) 17:56:51 437.465
XW-2C 23 Jun 18:03:08 18:06:37 34° 72° (ENE) 18:10:08 145.795 - 145.815
SRMSAT 23 Jun 18:18:29 18:19:57 11° 176° (S) 18:21:26 437.500
KAITUO 1B 23 Jun 18:23:00 18:26:38 46° 74° (ENE) 18:30:16 145.475/437.950
KKS-1 23 Jun 18:49:28 18:53:24 31° 290° (WNW) 18:57:19 437.445
XW-2A 23 Jun 18:56:41 18:58:20 13° 67° (ENE) 18:59:59 145.665 - 145.685
HO-68 23 Jun 18:57:55 19:04:36 43° 66° (ENE) 19:11:17 435.675
NUDT-PHONESAT 23 Jun 19:02:02 19:05:43 52° 260° (W) 19:09:25 437.300
SEEDS 23 Jun 19:08:41 19:11:42 19° 68° (ENE) 19:14:42 437.485
CUBEBUG 2 23 Jun 19:09:11 19:12:12 18° 65° (ENE) 19:15:17 437.445
XW-2F 23 Jun 19:10:37 19:14:04 32° 263° (W) 19:17:33 145.980 - 146.000
CUBESAT XI-V 23 Jun 19:12:05 19:14:21 14° 296° (WNW) 19:16:37 437.345
XW-2D 23 Jun 19:13:06 19:16:26 28° 263° (W) 19:19:48 145.860 - 145.880
DOVE 4 23 Jun 19:13:08 19:15:41 16° 268° (W) 19:18:16 437.250
LilacSat-2 23 Jun 19:18:45 19:21:55 24° 265° (W) 19:25:05 437.200
CUTE 1.7 + AOD 2 23 Jun 19:20:32 19:24:33 41° 73° (ENE) 19:28:34 437.475
XW-2B 23 Jun 19:22:20 19:25:25 23° 265° (W) 19:28:31 145.730 - 145.750
CUTE-I 23 Jun 19:23:18 19:28:14 39° 262° (W) 19:33:13 437.470
STARS 23 Jun 19:25:45 19:29:34 29° 291° (WNW) 19:33:24 437.465
XW-2C 23 Jun 19:38:40 19:40:54 15° 267° (W) 19:43:09 145.795 - 145.815
UWE-3 23 Jun 19:46:48 19:50:35 26° 69° (ENE) 19:54:25 435.000/436.395/437.385
ZACube-1 23 Jun 19:48:11 19:50:52 16° 65° (ENE) 19:53:32 437.345
KAITUO 1B 23 Jun 19:59:59 20:00:52 11° 269° (W) 20:01:44 145.475/437.950
AAUSAT CUBESAT 2 23 Jun 20:05:33 20:09:22 38° 73° (ENE) 20:13:12 437.432
SRMSAT 23 Jun 20:07:09 20:08:10 10° 186° (S) 20:09:13 437.500
RS-15 23 Jun 20:08:01 20:16:56 25° 100° (E) 20:25:57 29.354- 29.394
STRAND 1 23 Jun 20:26:59 20:32:06 60° 101° (E) 20:37:10 437.568
XW-2A 23 Jun 20:27:39 20:30:45 32° 262° (W) 20:33:53 145.665 - 145.685
AO-85 23 Jun 20:29:34 20:31:57 15° 111° (ESE) 20:34:18 145.980
SEEDS 23 Jun 20:43:21 20:47:08 32° 263° (W) 20:50:56 437.485
CUBEBUG 2 23 Jun 20:44:04 20:48:24 45° 262° (W) 20:52:53 437.445
HO-68 23 Jun 20:45:55 20:52:20 35° 263° (W) 20:58:50 435.675
AO-73 23 Jun 20:48:29 20:52:55 61° 75° (ENE) 20:57:27 145.935
CUTE 1.7 + AOD 2 23 Jun 20:58:04 21:00:33 15° 268° (W) 21:03:02 437.475
YUBILEINY 23 Jun 21:10:52 21:16:19 18° 78° (ENE) 21:21:45 435.215
PCSat 23 Jun 21:14:19 21:18:37 23° 49° (NE) 21:22:53 145.827
Oscar 11 23 Jun 21:18:33 21:22:54 80° 259° (W) 21:27:16 .
ZACube-1 23 Jun 21:22:16 21:26:40 51° 261° (W) 21:31:09 437.345
UWE-3 23 Jun 21:22:57 21:26:54 29° 265° (W) 21:30:56 435.000/436.395/437.385
O/OREOS (USA 219) 23 Jun 21:34:50 21:38:12 21° 101° (ESE) 21:41:35 437.305
FO-29 23 Jun 21:35:53 21:41:20 20° 89° (E) 21:46:43 435.910
AAUSAT CUBESAT 2 23 Jun 21:42:29 21:44:57 15° 267° (W) 21:47:25 437.432
BEESAT 3 23 Jun 21:47:22 21:51:15 60° 118° (ESE) 21:55:13 437.485
EO-88 23 Jun 21:48:50 21:52:10 34° 73° (ENE) 21:55:32 145.990 - 145.960
M-CUBED/EXP-1 PRIME 23 Jun 21:50:06 21:51:59 13° 100° (E) 21:53:55 437.505
DELFI C3 23 Jun 21:51:49 21:55:40 60° 76° (ENE) 21:59:33 145.870
UNISAT 6 23 Jun 22:04:19 22:06:54 15° 91° (E) 22:09:28 437.425
STRAND 1 23 Jun 22:07:36 22:10:45 17° 297° (WNW) 22:13:53 437.568
AO-85 23 Jun 22:08:07 22:12:00 42° 305° (NW) 22:15:46 145.980
NO-84 23 Jun 22:14:32 22:18:03 34° 128° (SE) 22:21:51 435.350 FM
RS-15 23 Jun 22:15:41 22:27:52 86° 301° (WNW) 22:40:21 29.354- 29.394
LO-87 23 Jun 22:21:55 22:22:07 10° 65° (ENE) 22:22:19 145.935 - 145.965
AO-73 23 Jun 22:27:48 22:29:31 12° 270° (W) 22:31:15 145.935
BEESAT 2 23 Jun 22:41:20 22:45:17 82° 120° (ESE) 22:49:20 435.950
PCSat 23 Jun 22:57:02 23:02:18 52° 247° (WSW) 23:07:32 145.827
TIGRISAT 23 Jun 22:57:48 23:02:23 52° 99° (E) 23:06:50 435.000
YUBILEINY 23 Jun 23:03:04 23:11:53 85° 277° (W) 23:20:47 435.215
O/OREOS (USA 219) 23 Jun 23:13:12 23:17:22 35° 297° (WNW) 23:21:31 437.305
ESTCUBE 1 23 Jun 23:18:21 23:22:26 35° 71° (ENE) 23:26:32 437.505/2401.250
FO-29 23 Jun 23:19:08 23:26:58 81° 285° (WNW) 23:34:45 435.910
M-CUBED/EXP-1 PRIME 23 Jun 23:23:02 23:26:30 40° 291° (WNW) 23:30:13 437.505
EO-88 23 Jun 23:24:04 23:25:57 13° 267° (W) 23:27:51 145.990 - 145.960
SO-50 23 Jun 23:24:37 23:28:26 26° 49° (NE) 23:32:15 436.795
BEESAT 3 23 Jun 23:27:03 23:29:13 14° 316° (NW) 23:31:24 437.485
AIST 2D 23 Jun 23:27:28 23:28:15 11° 91° (E) 23:29:01 435.315
PRISM 23 Jun 23:27:54 23:31:57 62° 285° (WNW) 23:36:00 437.425
VELOX 1 23 Jun 23:31:48 23:33:20 12° 63° (ENE) 23:34:53 145.980
UNISAT 6 23 Jun 23:39:22 23:43:54 51° 287° (WNW) 23:48:19 437.425
LO-87 23 Jun 23:51:40 23:55:05 46° 261° (W) 23:58:33 145.935 - 145.965
NO-84 23 Jun 23:52:00 23:55:39 32° 326° (NW) 23:59:30 435.350 FM
EO-79 23 Jun 23:54:16 23:56:05 12° 91° (E) 23:57:54 145.935-145.965
SPROUT 24 Jun 00:05:55 00:09:34 28° 70° (ENE) 00:13:15 437.525
DUCHIFAT 1 24 Jun 00:10:08 00:12:40 15° 93° (E) 00:15:10 145.980
NANOSAT C BR1 24 Jun 00:16:56 00:20:10 21° 94° (E) 00:23:22 145.865
BEESAT 2 24 Jun 00:22:17 00:23:35 11° 318° (NW) 00:24:56 435.950
RS-15 24 Jun 00:31:56 00:42:23 31° 327° (NNW) 00:52:56 29.354- 29.394
TIGRISAT 24 Jun 00:35:50 00:38:34 16° 296° (WNW) 00:41:18 435.000
POLYITAN 1 24 Jun 00:51:55 00:56:11 60° 101° (E) 01:00:23 437.675
ESTCUBE 1 24 Jun 00:56:01 00:59:18 20° 266° (W) 01:02:37 437.505/2401.250
AIST 2D 24 Jun 00:58:21 01:01:37 38° 286° (WNW) 01:04:52 435.315
QB50P2 24 Jun 01:02:35 01:06:54 88° 95° (E) 01:11:10 145.880/145.840
SO-50 24 Jun 01:04:49 01:08:55 34° 246° (WSW) 01:13:02 436.795
VELOX 1 24 Jun 01:04:53 01:09:13 64° 259° (W) 01:13:35 145.980
YUBILEINY 24 Jun 01:04:54 01:10:04 17° 298° (WNW) 01:15:17 435.215
FO-29 24 Jun 01:06:10 01:10:48 17° 303° (WNW) 01:15:28 435.910
Oscar 19 24 Jun 01:21:52 01:23:28 11° 90° (E) 01:25:04 437.125/150
BUGSAT 1 24 Jun 01:27:08 01:31:01 34° 97° (E) 01:34:52 437.445
EO-79 24 Jun 01:27:58 01:32:08 51° 286° (WNW) 01:36:15 145.935-145.965
50 SAT 24 Jun 01:28:35 01:31:55 62° 259° (W) 01:35:17 437.505
DX 1 24 Jun 01:30:51 01:35:09 80° 74° (ENE) 01:39:29 434.975-435.025
NO-84 24 Jun 01:33:01 01:34:25 11° 346° (NNW) 01:35:50 435.350 FM
SPROUT 24 Jun 01:42:05 01:45:26 22° 265° (W) 01:48:49 437.525
DUCHIFAT 1 24 Jun 01:44:29 01:48:30 41° 288° (WNW) 01:52:28 145.980
UKube-1 24 Jun 01:52:02 01:56:19 88° 256° (WSW) 02:00:39 .
NANOSAT C BR1 24 Jun 01:52:08 01:55:53 30° 290° (WNW) 01:59:36 145.865
Gurwin Techsat 1B 24 Jun 01:58:02 02:01:30 17° 92° (E) 02:04:58 435.225
ITUPSAT 1 24 Jun 02:24:02 02:27:26 20° 65° (ENE) 02:30:51 437.325
MOZHAYETS 4 24 Jun 02:25:02 02:26:38 12° 62° (ENE) 02:28:13
POLYITAN 1 24 Jun 02:29:48 02:31:25 12° 296° (WNW) 02:33:02 437.675
BEESAT 24 Jun 02:34:46 02:38:39 25° 67° (ENE) 02:42:33 436.000
RS-15 24 Jun 02:52:35 03:00:42 19° 2° (N) 03:08:43 29.354- 29.394
Oscar 19 24 Jun 02:58:11 03:03:18 76° 285° (WNW) 03:08:24 437.125/150
BUGSAT 1 24 Jun 03:03:03 03:06:06 19° 293° (WNW) 03:09:08 437.445
ITAMSAT 1 24 Jun 03:32:49 03:36:10 17° 92° (E) 03:39:28 435.822/435.867
Gurwin Techsat 1B 24 Jun 03:36:34 03:41:45 55° 288° (WNW) 03:46:55 435.225
MOZHAYETS 4 24 Jun 03:58:32 04:03:09 72° 258° (WSW) 04:07:48
ITUPSAT 1 24 Jun 04:00:21 04:04:55 43° 261° (W) 04:09:31 437.325
KKS-1 24 Jun 04:10:33 04:13:39 19° 66° (ENE) 04:16:46 437.445
BEESAT 24 Jun 04:11:58 04:16:15 32° 263° (W) 04:20:33 436.000
AO-7 24 Jun 04:26:32 04:34:44 54° 102° (ESE) 04:42:50 .
CUBESAT XI-V 24 Jun 04:34:43 04:39:10 49° 73° (ENE) 04:43:39 437.345
STARS 24 Jun 04:45:30 04:48:34 19° 66° (ENE) 04:51:38 437.465
NO-84 24 Jun 04:49:21 04:52:47 22° 28° (NNE) 04:56:11 435.350 FM
AO-85 24 Jun 05:01:09 05:02:47 12° 44° (NE) 05:04:27 145.980
RS-15 24 Jun 05:07:48 05:18:38 35° 37° (NE) 05:29:00 29.354- 29.394
ITAMSAT 1 24 Jun 05:10:49 05:15:56 55° 288° (WNW) 05:21:01 435.822/435.867
DOVE 4 24 Jun 05:34:30 05:36:54 13° 91° (E) 05:39:20 437.250
KKS-1 24 Jun 05:45:49 05:49:55 38° 262° (W) 05:54:04 437.445
CUTE-I 24 Jun 06:05:17 06:05:45 10° 89° (E) 06:06:12 437.470
BEESAT 3 24 Jun 06:05:35 06:08:55 24° 50° (NE) 06:12:12 437.485
CUBESAT XI-V 24 Jun 06:14:05 06:16:47 15° 268° (W) 06:19:30 437.345
AO-7 24 Jun 06:19:50 06:27:06 35° 300° (WNW) 06:34:23 .
STARS 24 Jun 06:20:34 06:24:36 37° 262° (W) 06:28:42 437.465
NO-84 24 Jun 06:26:26 06:30:48 73° 226° (SW) 06:34:58 435.350 FM
NUDT-PHONESAT 24 Jun 06:34:46 06:36:55 15° 93° (E) 06:39:03 437.300
AO-85 24 Jun 06:39:29 06:43:38 80° 240° (WSW) 06:48:03 145.980
XW-2F 24 Jun 06:43:57 06:47:06 25° 96° (E) 06:50:11 145.980 - 146.000
XW-2D 24 Jun 06:46:32 06:49:51 29° 97° (E) 06:53:10 145.860 - 145.880
LilacSat-2 24 Jun 06:52:30 06:56:01 36° 98° (E) 06:59:30 437.200
XW-2B 24 Jun 06:55:20 06:58:50 36° 98° (E) 07:02:19 145.730 - 145.750
BEESAT 2 24 Jun 07:00:16 07:03:57 32° 52° (NE) 07:07:35 435.950
DOVE 4 24 Jun 07:10:02 07:14:52 65° 285° (WNW) 07:19:57 437.250
XW-2C 24 Jun 07:10:34 07:14:18 60° 101° (E) 07:18:00 145.795 - 145.815
RS-15 24 Jun 07:20:25 07:32:34 82° 243° (WSW) 07:44:03 29.354- 29.394
KAITUO 1B 24 Jun 07:29:02 07:32:45 81° 102° (ESE) 07:36:26 145.475/437.950
CUTE-I 24 Jun 07:41:01 07:46:25 88° 286° (WNW) 07:51:49 437.470
STRAND 1 24 Jun 07:41:26 07:46:32 75° 75° (ENE) 07:51:41 437.568
BEESAT 3 24 Jun 07:43:01 07:46:27 28° 247° (WSW) 07:49:51 437.485
O/OREOS (USA 219) 24 Jun 07:45:02 07:49:04 32° 62° (ENE) 07:53:05 437.305
XW-2A 24 Jun 07:51:22 07:53:24 15° 94° (E) 07:55:24 145.665 - 145.685
Tancredo 1 24 Jun 08:01:39 08:03:32 15° 130° (SE) 08:05:25 437.200
NUDT-PHONESAT 24 Jun 08:07:35 08:10:53 31° 288° (WNW) 08:14:09 437.300
HO-68 24 Jun 08:14:01 08:20:58 50° 100° (E) 08:27:52 435.675
XW-2F 24 Jun 08:18:20 08:21:03 19° 291° (WNW) 08:23:45 145.980 - 146.000
XW-2D 24 Jun 08:21:21 08:23:48 17° 292° (WNW) 08:26:15 145.860 - 145.880
SEEDS 24 Jun 08:27:50 08:31:47 41° 98° (E) 08:35:43 437.485
LilacSat-2 24 Jun 08:27:55 08:29:58 14° 293° (WNW) 08:31:59 437.200
XW-2B 24 Jun 08:30:42 08:32:41 14° 293° (WNW) 08:34:40 145.730 - 145.750
CUBEBUG 2 24 Jun 08:35:59 08:40:29 43° 98° (E) 08:44:51 437.445
M-CUBED/EXP-1 PRIME 24 Jun 08:36:12 08:37:21 11° 62° (ENE) 08:38:31 437.505
BEESAT 2 24 Jun 08:38:25 08:41:30 21° 249° (WSW) 08:44:32 435.950
AO-73 24 Jun 08:39:43 08:41:41 13° 90° (E) 08:43:37 145.935
CUTE 1.7 + AOD 2 24 Jun 08:41:55 08:46:08 80° 283° (WNW) 08:50:19 437.475
UNISAT 6 24 Jun 09:02:52 09:04:38 12° 62° (ENE) 09:06:25 437.425
